sat.trackr.live / text

‹ back to catalog

UNKNOWN

NORAD 84575

UNKNOWN UNKNOWN UNKNOWN

§ Identity

Operator
Country
Launch date
Launch site
Launch vehicle
Mass (kg)
RCS (m²)

External: N2YO · Heavens-Above

§ Orbital elements

Epoch: 2026-09-15T12:53:58.583040Z

Period
654.81 min
Inclination
18.6640°
Eccentricity
0.7131730
Mean motion
2.19911546 rev/d
Perigee alt
786.4 km
Apogee alt
36,414.7 km
Semi-major
24,978.7 km
B*
1.4926e-2
RAAN
64.7124°
Arg perigee
193.1629°
Mean anomaly
127.3467°
Rev number
7,155

§ Raw data

UNKNOWN1 84575U          26258.53748360  .00000289  00000+0  14926-1 0  99992 84575  18.6640  64.7124 7131730 193.1629 127.3467  2.19911546 71559

JSON: /api/v1/satellites/84575 · /tle

For live sub-satellite position, see the globe view (requires WebGL).

§ Visibility from observer

Set your observer location to see the next 7 days of passes ≥ 10°. The values pass through the URL so the page stays shareable.

No JS? Fill the form by hand. The geolocation button needs JavaScript.